Location: Unspecified
(0.0000°N, 0.0000°E)
Time: 08:49:00
(UTC+00:00)

Tiangong - Pass Details

Date: 25 November 2022
Orbit: 385 x 393 km, 41.5° (Epoch: 29 November)

Event Time Altitude Azimuth Distance (km) Brightness Sun altitude
Exits shadow 03:50:19 10° 61° (ENE) 1,410 1.1 -27.1°
Drops below altitude 10° 03:50:22 10° 61° (ENE) 1,415 1.1 -27.1°
Sets 03:53:42 0° 99° (E) 2,271 3.0 -26.3°
